Location: Dompnac
(44.5644°N, 4.1026°E)
Time: 14:11:48
(UTC+00:00)

Cosmos 2026 Rocket - Pass Details

Date: 25 January 2021
Orbit: 940 x 1000 km, 82.9° (Epoch: 28 February)

Event Time Altitude Azimuth Distance (km) Brightness Sun altitude
Rises 19:45:49 0° 227° (SW) 3,615 7.5 -32.4°
Reaches altitude 10° 19:48:51 10° 241° (WSW) 2,683 6.9 -33.0°
Maximum altitude 19:53:36 23° 292° (WNW) 1,925 6.1 -33.8°
Drops below altitude 10° 19:58:27 10° 344° (NNW) 2,729 6.6 -34.7°
Sets 20:01:36 0° 358° (N) 3,692 7.1 -35.2°
